Voltar ao catálogo

ZY 3 04

AtivoCiênciaSSO
NORAD 67131·PAYLOAD·🇨🇳 China

Lançado Dec 16, 2025 de Taiyuan Satellite Launch Center

Loading…

Próximas Passagens (próximas 24 horas)

TLE

AtualizadoSource: Space-Track

Época: Sep 14, 2026, 14:50 UTC

1 67131U 25300A   26257.61872207  .00003257  00000-0  14814-3 0  9991
2 67131  97.4671 334.8246 0006371  10.1019 350.0344 15.21430696 41431

Acompanhe ZY 3 04 em tempo real com AllMySat

Download on the App Store